Regional Weather Roundup
Issued by NWS Jackson, KY

Home | Current Version | Previous Version | Graphics & Text | Print | Product List | Glossary On
Versions: 1 2 3 4 5 6 7 8 9 10 11 12 13 14 15 16 17 18 19 20 21 22 23 24 25 26 27 28 29 30 31 32 33 34 35 36 37 38 39 40 41 42 43 44 45 46 47 48 49 50
000
ASUS43 KJKL 231105
RWRJKL

EAST KENTUCKY HOURLY WEATHER ROUNDUP
NATIONAL WEATHER SERVICE JACKSON KY
700 AM EDT TUE SEP 23 2014

NOTE: "FAIR" INDICATES FEW OR NO CLOUDS BELOW 12,000 FEET WITH
NO SIGNIFICANT WEATHER AND/OR OBSTRUCTIONS TO VISIBILITY.

* THESE REPORTS ARE NOT UNDER NWS QUALITY CONTROL AND MAY NOT
  REPORT WEATHER SUCH AS PRECIPITATION AND FOG.

KYZ079-080-083-085-087-088-110-112-115-119-120-231200
...EASTERN KENTUCKY...

CITY           SKY/WX    TMP DP  RH WIND       PRES   REMARKS
JACKSON        CLEAR     48  44  86 CALM      30.28R
LONDON         CLEAR     47  43  86 N6        30.28R
SOMERSET*      CLEAR     43  43 100 CALM      30.29S
MONTICELLO*    CLEAR     42  42 100 CALM      30.29R
WILLIAMSBURG*  CLOUDY    43  43 100 CALM      30.28
MIDDLESBORO*   FOG       46  46 100 CALM      30.29S VSB 3/4
HARLAN APT*    CLOUDY    46  46 100 MISG      30.29R
BLACK MTN*       N/A     43  43 100 NE2         N/A
PIKEVILLE APT* FOG       45  45 100 SE5       30.30R VSB 0
BIG SANDY*     FOG       43  43 100 CALM      30.29R VSB 1/4
MOREHEAD APT*  SUNNY     45  41  87 CALM      30.32R
$$

KYZ035-036-041-042-044-050-067-078-099-231200
...CENTRAL KENTUCKY...

CITY           SKY/WX    TMP DP  RH WIND       PRES   REMARKS
MT STERLING*   CLEAR     41  41 100 CALM      30.32R
FLEMING/MASON* CLEAR     42  41  99 N3        30.33R FOG
DANVILLE*      CLEAR     41  41 100 CALM      30.31R
RICHMOND*      CLEAR     41  39  93 CALM      30.29R
LEXINGTON      CLEAR     45  40  82 NE3       30.30R
FRANKFORT      CLEAR     41  39  93 CALM      30.30R
$$

KYZ091>093-OHZ055-061-077-WVZ005-015-034-035-042-231200
...SOUTHERN OHIO/WEST VIRGINIA...

CITY           SKY/WX    TMP DP  RH WIND       PRES   REMARKS
COVINGTON      CLEAR     49  44  83 NE3       30.31R
COLUMBUS       CLEAR     46  41  82 CALM      30.32R
DAYTON         CLEAR     45  41  86 CALM      30.33R
WILMINGTON     CLEAR     41  37  86 SE3       30.32R
HUNTINGTON     PTCLDY    45  45 100 CALM      30.30R FOG
CHARLESTON     FOG       45  45 100 SE5       30.30R VSB 1/4
PINEVILLE*     FOG       46  46 100 MISG      30.35R VSB 1
BECKLEY        CLEAR     39  37  92 CALM      30.30R
BLUEFIELD      FOG       42  39  89 E5        30.30R VSB 1/2
$$

VAZ002-007-008-TNZ017-027-036-066-071-231200
...SOUTHWEST VIRGINIA/EAST TENNESSEE...

CITY           SKY/WX    TMP DP  RH WIND       PRES   REMARKS
WISE*          CLEAR     45  45 100 NE5       30.29S
JONESVILLE*    SUNNY     41  41 100 CALM      30.29S
ABINGDON*      CLEAR     47  44  92 E7        30.26S
BRISTOL        PTCLDY    44  41  89 E3        30.26R FOG
KNOXVILLE      PTCLDY    50  48  93 CALM      30.23R
OAK RIDGE      CLEAR     50  48  93 CALM      30.26R
CROSSVILLE     CLEAR     48  44  86 E3        30.26R
NASHVILLE      CLEAR     51  45  79 NE5       30.25R
$$

...KEY TO REMARKS...
VSB - VISIBILITY IN MILES
WCI - WIND CHILL INDEX
HX  - HEAT INDEX

$$



USA.gov is the U.S. government's official web portal to all federal, state and local government web resources and services.